GW7009 Weather Reports


time (UTC)temp
F
wind
direction
speed
knots
gust
knots
rain 1hr
in
rain 24hr
in
rain mn
in
humidity
%
barometer
mb
20260505124523 65 266 0.9 6.1 0.00 0.00 0.00 58 1011.2
20260505123025 65 188 3.5 7.0 0.00 0.00 0.00 59 1011.1
20260505121527 63 240 2.6 4.3 0.00 0.00 0.00 60 1011.0
20260505120024 62 300 0.0 2.6 0.00 0.00 0.00 66 1010.8
20260505114518 60 1 0.0 1.7 0.00 0.00 0.00 71 1010.8
20260505113023 58 53 0.0 1.7 0.00 0.00 0.00 70 1010.7
20260505111531 55 25 0.0 0.9 0.00 0.00 0.00 77 1010.8
20260505101530 53 194 0.0 1.7 0.00 0.00 0.00 77 1010.0
20260505100006 56 210 0.0 1.7 0.00 0.00 0.00 71 1009.9
20260505094507 54 241 0.0 1.7 0.00 0.00 0.00 74 1010.0
20260505093008 54 190 0.0 1.7 0.00 0.00 0.00 74 1009.8
20260505091505 55 181 0.0 0.9 0.00 0.00 0.00 71 1009.8
20260505090008 56 193 0.0 1.7 0.00 0.00 0.00 70 1009.7
20260505084513 55 203 0.0 2.6 0.00 0.00 0.00 71 1009.7
20260505083016 55 229 0.0 1.7 0.00 0.00 0.00 73 1009.7
20260505081506 56 218 0.0 1.7 0.00 0.00 0.00 70 1009.7
20260505080015 58 218 0.0 1.7 0.00 0.00 0.00 68 1009.6
20260505074508 59 298 0.0 1.7 0.00 0.00 0.00 65 1009.6
20260505073022 60 286 0.0 1.7 0.00 0.00 0.00 63 1009.5
20260505071509 61 312 0.0 3.5 0.00 0.00 0.00 61 1009.5
20260505070007 62 331 0.9 1.7 0.00 0.00 0.00 56 1009.6
20260505064509 63 316 0.9 1.7 0.00 0.00 0.00 54 1009.6
20260505063010 63 157 0.9 5.2 0.00 0.00 0.00 54 1009.8
20260505061517 62 226 1.7 4.3 0.00 0.00 0.00 53 1009.9
20260505060009 62 231 2.6 6.1 0.00 0.00 0.00 54 1009.8
20260505054507 61 237 3.5 6.1 0.00 0.00 0.00 55 1010.0
20260505053010 61 17 0.9 1.7 0.00 0.00 0.00 56 1009.9
20260505051514 62 298 0.0 3.5 0.00 0.00 0.00 54 1009.6
20260505041514 63 180 1.7 7.8 0.00 0.00 0.00 52 1009.4
20260505040020 63 254 1.7 6.1 0.00 0.00 0.00 51 1009.3
20260505034515 63 269 2.6 7.8 0.00 0.00 0.00 50 1009.2
20260505033007 63 360 2.6 8.7 0.00 0.00 0.00 49 1009.2
20260505031515 64 216 3.5 8.7 0.00 0.00 0.00 48 1009.2
20260505030016 64 245 3.5 8.7 0.00 0.00 0.00 47 1009.1
20260505024515 64 261 1.7 8.7 0.00 0.00 0.00 47 1009.0
20260505023014 64 234 3.5 11.3 0.00 0.00 0.00 46 1008.9
20260505021511 64 219 2.6 7.0 0.00 0.00 0.00 46 1009.2
20260505020025 64 100 1.7 7.8 0.00 0.00 0.00 46 1009.1
20260505014530 65 175 1.7 9.6 0.00 0.00 0.00 45 1009.2
20260505013023 65 231 2.6 7.0 0.00 0.00 0.00 45 1009.3
20260505011524 65 179 1.7 7.8 0.00 0.00 0.00 45 1009.1
20260505010016 66 193 3.5 8.7 0.00 0.00 0.00 44 1008.9
20260505004518 66 125 2.6 7.0 0.00 0.00 0.00 43 1008.8
20260505003024 66 223 2.6 7.0 0.00 0.00 0.00 43 1008.7
20260505001508 67 218 2.6 9.6 0.00 0.00 0.00 42 1008.7
20260505000012 68 239 3.5 11.3 0.00 0.00 0.00 41 1008.6
20260504234517 69 146 1.7 7.0 0.00 0.00 0.00 41 1008.6
20260504233020 70 157 3.5 7.8 0.00 0.00 0.00 38 1008.5
20260504231504 71 223 3.5 11.3 0.00 0.00 0.00 37 1008.4
20260504230010 71 216 3.5 11.3 0.00 0.00 0.00 38 1008.4
20260504224518 72 212 6.1 15.6 0.00 0.00 0.00 36 1008.4
20260504223020 72 240 7.0 13.9 0.00 0.00 0.00 36 1008.5
20260504221522 72 192 5.2 13.9 0.00 0.00 0.00 36 1008.3
20260504220011 73 230 3.5 11.3 0.00 0.00 0.00 35 1008.4
20260504214511 73 220 5.2 9.6 0.00 0.00 0.00 36 1008.5
20260504213026 72 224 3.5 13.0 0.00 0.00 0.00 35 1008.5
20260504211532 73 126 2.6 9.6 0.00 0.00 0.00 40 1008.6
20260504210022 72 257 2.6 13.9 0.00 0.00 0.00 35 1008.7
20260504204515 72 221 2.6 8.7 0.00 0.00 0.00 36 1008.7
20260504203019 72 230 5.2 9.6 0.00 0.00 0.00 36 1008.9
20260504201522 72 214 2.6 7.8 0.00 0.00 0.00 39 1009.1
20260504200024 72 216 6.1 11.3 0.00 0.00 0.00 36 1009.3
20260504194510 72 263 3.5 13.0 0.00 0.00 0.00 40 1009.4
20260504193015 71 263 7.8 14.8 0.00 0.00 0.00 36 1009.9
20260504191525 70 242 8.7 13.9 0.00 0.00 0.00 35 1010.0
20260504190026 71 277 6.1 11.3 0.00 0.00 0.00 36 1010.1
20260504184536 69 216 2.6 13.0 0.00 0.00 0.00 36 1010.2
20260504183012 70 288 2.6 11.3 0.00 0.00 0.00 38 1010.3
20260504181517 70 351 5.2 12.2 0.00 0.00 0.00 39 1010.6
20260504180025 69 257 5.2 13.9 0.00 0.00 0.00 37 1010.8
20260504174526 68 269 7.8 12.2 0.00 0.00 0.00 37 1011.0
20260504173013 68 228 6.1 11.3 0.00 0.00 0.00 38 1011.2
20260504171522 68 212 4.3 12.2 0.00 0.00 0.00 37 1011.5